Cambridge, MN

4:36 PM CDT on October 21, 2017 (GMT -0500)
Cambridge Municipal

Weather History for KCBG - July, 2013

Change the Weather History Date:

Monday, July 22, 2013

  Actual Average Record
Temperature  
Mean Temperature 75 °F -  
Max Temperature 84 °F 81 °F 95 °F (1989)
Min Temperature 66 °F 58 °F 48 °F (1992)
Cooling Degree Days 10    
Growing Degree Days 25 (Base 50)    
Moisture  
Dew Point 66 °F    
Average Humidity 80    
Maximum Humidity 94    
Minimum Humidity 65    
Precipitation  
Precipitation 0.00 in - - ()
Sea Level Pressure  
Sea Level Pressure 29.73 in    
Wind  
Wind Speed 8 mph (SW)    
Max Wind Speed 14 mph    
Max Gust Speed 21 mph    
Visibility 10 miles    
Events Rain    
Averages and records for this station are not official NWS values.
T = Trace of Precipitation, MM = Missing Value Source: NWS Daily Summary

Daily Weather History Graph

Daily Weather History Graph

Search for Another Location

Airport or City:

Trip Planner

Search our weather history database for the weather conditions in past years. The results will help you decide how hot, cold, wet, or windy it might be!

Date:

Astronomy

Jul. 22, 2013 Rise Set
Actual Time 5:45 AM CDT 8:52 PM CDT
Civil Twilight 5:10 AM CDT 9:27 PM CDT
Nautical Twilight 4:24 AM CDT 10:13 PM CDT
Astronomical Twilight 3:28 AM CDT 11:08 PM CDT
Moon 8:33 PM CDT (7/22) 5:46 AM CDT (7/22)
Length of Visible Light 16h 17m
Length of Day
15h 06m
Full, 100% of the Moon is Illuminated
Jul 22
Full
Jul 22
Full
Jul 29
Last Quarter
Aug 6
New
Aug 14
First Quarter

Hourly Weather History & Observations

Time (CDT) Temp. Heat Index Dew Point Humidity Pressure Visibility Wind Dir Wind Speed Gust Speed Precip Events Conditions
12:14 AM 69.8 °F - 64.4 °F 83% 29.79 in 10.0 mi SE 6.9 mph - N/A   Clear
12:35 AM 68.0 °F - 64.4 °F 88% 29.78 in 10.0 mi SSE 5.8 mph - N/A   Clear
12:54 AM 68.0 °F - 64.4 °F 88% 29.78 in 10.0 mi SE 6.9 mph - N/A   Clear
1:15 AM 68.0 °F - 64.4 °F 88% 29.78 in 10.0 mi SSE 8.1 mph - N/A   Clear
1:35 AM 66.2 °F - 64.4 °F 94% 29.77 in 10.0 mi SE 8.1 mph - N/A   Clear
1:54 AM 66.2 °F - 64.4 °F 94% 29.76 in 10.0 mi SE 8.1 mph - N/A   Clear
2:15 AM 66.2 °F - 64.4 °F 94% 29.75 in 10.0 mi SSE 6.9 mph - N/A   Clear
2:34 AM 66.2 °F - 64.4 °F 94% 29.75 in 10.0 mi SSE 6.9 mph - N/A   Clear
2:55 AM 66.2 °F - 62.6 °F 88% 29.75 in 10.0 mi SSE 9.2 mph - N/A   Clear
3:15 AM 66.2 °F - 62.6 °F 88% 29.74 in 10.0 mi SSE 9.2 mph - N/A   Clear
3:34 AM 66.2 °F - 62.6 °F 88% 29.73 in 10.0 mi SSE 8.1 mph - N/A   Clear
3:55 AM 66.2 °F - 62.6 °F 88% 29.72 in 10.0 mi SSE 5.8 mph - N/A   Clear
4:14 AM 66.2 °F - 62.6 °F 88% 29.72 in 10.0 mi SSE 5.8 mph - N/A   Clear
4:35 AM 66.2 °F - 64.4 °F 94% 29.72 in 10.0 mi SSE 6.9 mph - N/A   Clear
4:54 AM 66.2 °F - 64.4 °F 94% 29.73 in 10.0 mi South 8.1 mph - N/A Rain Light Rain
5:15 AM 66.2 °F - 64.4 °F 94% 29.75 in 10.0 mi South 3.5 mph - N/A   Scattered Clouds
5:34 AM 66.2 °F - 64.4 °F 94% 29.73 in 10.0 mi SE 4.6 mph - N/A   Scattered Clouds
5:55 AM 66.2 °F - 62.6 °F 88% 29.72 in 10.0 mi SSE 5.8 mph - N/A   Scattered Clouds
6:14 AM 66.2 °F - 62.6 °F 88% 29.72 in 10.0 mi SSE 8.1 mph - N/A   Clear
6:34 AM 66.2 °F - 62.6 °F 88% 29.71 in 10.0 mi SSE 8.1 mph - N/A   Clear
6:55 AM 66.2 °F - 64.4 °F 94% 29.70 in 10.0 mi SSE 10.4 mph - N/A   Clear
7:14 AM 68.0 °F - 64.4 °F 88% 29.69 in 10.0 mi SSE 10.4 mph - N/A   Clear
7:35 AM 68.0 °F - 64.4 °F 88% 29.70 in 10.0 mi South 8.1 mph - N/A   Clear
7:55 AM 69.8 °F - 64.4 °F 83% 29.68 in 10.0 mi South 11.5 mph - N/A   Clear
8:14 AM 69.8 °F - 64.4 °F 83% 29.68 in 10.0 mi South 10.4 mph - N/A   Clear
8:35 AM 69.8 °F - 66.2 °F 88% 29.68 in 10.0 mi South 11.5 mph 16.1 mph N/A   Scattered Clouds
8:54 AM 71.6 °F - 66.2 °F 83% 29.67 in 10.0 mi South 8.1 mph - N/A   Clear
9:15 AM 73.4 °F - 68.0 °F 83% 29.67 in 10.0 mi South 9.2 mph - N/A   Clear
9:35 AM 75.2 °F - 69.8 °F 83% 29.66 in 10.0 mi SSW 11.5 mph 16.1 mph N/A   Clear
9:54 AM 75.2 °F - 69.8 °F 83% 29.66 in 10.0 mi SSW 9.2 mph - N/A   Clear
10:15 AM 75.2 °F - 69.8 °F 83% 29.66 in 10.0 mi SW 8.1 mph - N/A   Clear
10:35 AM 77.0 °F - 71.6 °F 83% 29.66 in 10.0 mi SSW 6.9 mph - N/A   Clear
10:54 AM 77.0 °F - 71.6 °F 83% 29.67 in 10.0 mi SW 8.1 mph - N/A   Scattered Clouds
11:15 AM 78.8 °F - 71.6 °F 78% 29.67 in 10.0 mi WSW 8.1 mph - N/A   Scattered Clouds
11:34 AM 78.8 °F - 71.6 °F 78% 29.67 in 10.0 mi WSW 8.1 mph - N/A   Clear
11:55 AM 78.8 °F - 71.6 °F 78% 29.67 in 10.0 mi SW 5.8 mph - N/A   Scattered Clouds
12:14 PM 78.8 °F - 71.6 °F 78% 29.67 in 10.0 mi SW 5.8 mph - N/A   Scattered Clouds
12:35 PM 78.8 °F - 71.6 °F 78% 29.67 in 10.0 mi West 5.8 mph - N/A   Scattered Clouds
12:54 PM 80.6 °F 85.4 °F 73.4 °F 79% 29.67 in 10.0 mi West 8.1 mph - N/A   Scattered Clouds
1:14 PM 80.6 °F 84.6 °F 71.6 °F 74% 29.67 in 10.0 mi WNW 8.1 mph - N/A   Scattered Clouds
1:35 PM 82.4 °F 88.2 °F 73.4 °F 74% 29.67 in 10.0 mi West 12.7 mph 17.3 mph N/A   Scattered Clouds
1:54 PM 82.4 °F 88.2 °F 73.4 °F 74% 29.66 in 10.0 mi West 9.2 mph - N/A   Scattered Clouds
2:15 PM 84.2 °F 90.9 °F 73.4 °F 70% 29.67 in 10.0 mi WNW 11.5 mph 17.3 mph N/A   Scattered Clouds
2:35 PM 84.2 °F 89.6 °F 71.6 °F 66% 29.67 in 10.0 mi West 13.8 mph 18.4 mph N/A   Scattered Clouds
2:55 PM 82.4 °F 86.3 °F 69.8 °F 66% 29.68 in 10.0 mi WNW 11.5 mph - N/A   Scattered Clouds
3:15 PM 84.2 °F 89.6 °F 71.6 °F 66% 29.68 in 10.0 mi WNW 12.7 mph 19.6 mph N/A   Clear
3:34 PM 82.4 °F 87.2 °F 71.6 °F 70% 29.69 in 10.0 mi WNW 11.5 mph 17.3 mph N/A   Scattered Clouds
3:55 PM 84.2 °F 89.6 °F 71.6 °F 66% 29.69 in 10.0 mi WNW 12.7 mph 18.4 mph N/A   Scattered Clouds
4:14 PM 82.4 °F 87.2 °F 71.6 °F 70% 29.69 in 10.0 mi NW 12.7 mph - N/A   Scattered Clouds
4:35 PM 82.4 °F 86.3 °F 69.8 °F 66% 29.69 in 10.0 mi NW 11.5 mph 17.3 mph N/A   Scattered Clouds
4:55 PM 82.4 °F 86.3 °F 69.8 °F 66% 29.69 in 10.0 mi WNW 13.8 mph 20.7 mph N/A   Clear
5:15 PM 80.6 °F 83.9 °F 69.8 °F 70% 29.70 in 10.0 mi WNW 11.5 mph 19.6 mph N/A   Scattered Clouds
5:35 PM 80.6 °F 83.9 °F 69.8 °F 70% 29.71 in 10.0 mi NW 13.8 mph 19.6 mph N/A   Scattered Clouds
5:54 PM 78.8 °F - 66.2 °F 65% 29.71 in 10.0 mi NW 12.7 mph - N/A   Scattered Clouds
6:15 PM 78.8 °F - 66.2 °F 65% 29.72 in 10.0 mi NW 9.2 mph - N/A   Clear
6:34 PM 77.0 °F - 66.2 °F 69% 29.73 in 10.0 mi NNW 13.8 mph 19.6 mph N/A   Scattered Clouds
6:55 PM 75.2 °F - 64.4 °F 69% 29.74 in 10.0 mi NNW 12.7 mph 18.4 mph N/A   Scattered Clouds
7:15 PM 75.2 °F - 64.4 °F 69% 29.75 in 10.0 mi NNW 9.2 mph - N/A   Scattered Clouds
7:34 PM 73.4 °F - 64.4 °F 73% 29.76 in 10.0 mi NNW 9.2 mph 19.6 mph N/A   Scattered Clouds
7:55 PM 71.6 °F - 62.6 °F 73% 29.77 in 10.0 mi NNW 11.5 mph 16.1 mph N/A   Clear
8:15 PM 71.6 °F - 62.6 °F 73% 29.78 in 10.0 mi NNW 5.8 mph - N/A   Scattered Clouds
8:34 PM 69.8 °F - 60.8 °F 73% 29.79 in 10.0 mi NNW 4.6 mph - N/A   Mostly Cloudy
8:55 PM 69.8 °F - 60.8 °F 73% 29.79 in 10.0 mi NNW 5.8 mph - N/A   Scattered Clouds
9:14 PM 68.0 °F - 60.8 °F 78% 29.80 in 10.0 mi NNW 3.5 mph - N/A   Scattered Clouds
9:35 PM 66.2 °F - 60.8 °F 83% 29.81 in 10.0 mi NNW 3.5 mph - N/A   Scattered Clouds
9:55 PM 68.0 °F - 60.8 °F 78% 29.82 in 10.0 mi Calm Calm - N/A   Mostly Cloudy
10:14 PM 66.2 °F - 59.0 °F 78% 29.82 in 10.0 mi Calm Calm - N/A   Mostly Cloudy
10:34 PM 66.2 °F - 59.0 °F 78% 29.83 in 10.0 mi NW 3.5 mph - N/A   Mostly Cloudy
10:55 PM 66.2 °F - 59.0 °F 78% 29.83 in 10.0 mi Calm Calm - N/A   Mostly Cloudy
11:15 PM 66.2 °F - 60.8 °F 83% 29.84 in 10.0 mi Calm Calm - N/A   Overcast
11:34 PM 66.2 °F - 57.2 °F 73% 29.84 in 10.0 mi North 5.8 mph - N/A   Scattered Clouds
11:55 PM 66.2 °F - 57.2 °F 73% 29.84 in 10.0 mi NNW 4.6 mph - N/A   Scattered Clouds